Starlink 32879

operational
NORAD ID: 62957 Int'l Des: 2025-029 Owner: SPXS Country: US Constellation: starlink
LEOCIRCULAR

Starlink 32879について

説明を読み込み中...

リアルタイム位置

3D地球を読み込み中...

次回通過

高度履歴

Altitude vs Time

uPlot chart will show altitude changes over time

軌道要素

1 62957U 25029K 25305.86129106 .00038471 00000-0 13027-2 0 9993
2 62957 53.1583 106.4111 0001492 78.5668 281.5501 15.30240158 41743
Epoch: Nov 1, 2025 • Age: 45 hours

現在のステータス

高度 474.8 km
速度 7.63 km/s
衛星直下点 8.34°N, 31.17°W
打ち上げ日 Feb 11, 2025
運用期間 0.7 years
タイプ internet

技術仕様

分類 Payload
質量 730.00 kg
乾燥質量 700.00 kg
総質量 730.00 kg
長さ 0.30 m
直径 4.10 m
スパン 29.00 m
形状 Box + pan
製造者 SPXS
バスタイプ Starlink V2M
フェーズステータス In Orbit
所有者/国 SPXS/US

大規模コンステレーション

Loading constellations...